Other Public Products
Issued by NWS Grand Forks, ND

Home | Current Version | Previous Version | Graphics & Text | Print | Product List | Glossary On
Versions: 1 2 3 4 5 6 7 8 9 10 11 12 13 14 15 16 17 18 19 20 21 22 23 24 25 26 27 28 29 30 31 32 33 34 35 36 37 38 39 40 41 42 43 44 45 46 47 48 49 50
000
FPUS83 KFGF 211931
OPUFGF
PRAIRIE TO PINES WEATHER ROUNDUP
NATIONAL WEATHER SERVICE EASTERN NORTH DAKOTA/GRAND FORKS ND
200 PM CDT TUE OCT 21 2014

 **SATELLITE DATA USED TO AUGMENT SKY COVER AT AUTOMATED STATIONS**
 *****  WEATHER ACROSS EASTERN NORTH DAKOTA  *****

CITY           SKY/WX    TMP DP  RH WIND       PRES   REMARKS
GRAND FORKS    SUNNY     63  42  46 SE26G35   29.91F
GRAND FORKS AF SUNNY     64  42  45 SE23G31   29.89F
GRAND CITY NWS   N/A     63 N/A N/A SE24        N/A
BUXTON           N/A     64  39  40 SE28        N/A
DEVILS LAKE    SUNNY     64  41  42 SE25G31   29.78F
FARGO          SUNNY     65  42  43 SE22G35   29.92F
WAHPETON ARPT  CLEAR     64  36  34 SE24G36   29.96F
$$

 *****  WEATHER ACROSS CENTRAL AND WESTERN NORTH DAKOTA  *****

CITY           SKY/WX    TMP DP  RH WIND       PRES   REMARKS
JAMESTOWN      SUNNY     70  42  36 SE22G28   29.81F
BISMARCK       SUNNY     74  45  35 SE12      29.72F
MINOT          SUNNY     67  40  37 SE13      29.69F
MINOT AFB      SUNNY     67  43  41 SE14      29.68F
GARRISON         N/A     67  42  40 SE12      29.69F
WILLISTON      SUNNY     67  41  38 S9        29.63F
DICKINSON      SUNNY     72  45  37 S14       29.65F
HETTINGER      SUNNY     76  43  30 S14       29.70F
$$

 *****  OTHER OBSERVATIONS NORTHEAST NORTH DAKOTA  *****

CITY           SKY/WX    TMP DP  RH WIND       PRES   REMARKS
WALHALLA         N/A     59  43  55 SE24G30   29.86F
LANGDON        FAIR      63  39  42 SE28G37   29.82F
CAVALIER       FAIR      59  43  55 SE20G30   29.87F
GRAFTON        FAIR      63  43  48 S24G32    29.89F
CANDO          MOCLDY    64  41  42 SE24G31   29.78F
FORT TOTTEN      N/A     65  39  39 S18       29.95
ROLLA          FAIR      63  39  42 S18G32    29.77F
RUGBY          FAIR      66  43  42 SE17G24   29.74F
 ***** THE ABOVE OBSERVATIONS ARE NON NWS ARE NOT QUALITY
        CONTROLLED AND MAY MIS-REPORT RAIN FOR SNOW...
$$

 *****  OTHER OBSERVATIONS SOUTHEAST NORTH DAKOTA *****

CITY           SKY/WX    TMP DP  RH WIND       PRES   REMARKS
COOPERSTOWN    NOT AVBL
VALLEY CITY    FAIR      66  43  42 SE23G31   29.86F
OAKES            N/A     75  46  35 SE21G29   29.85F
GWINNER        CLEAR     68  43  40 SE22G28   29.89F
SHEYENNE NWR     N/A     67  41  38 SE22      29.95S
BUFFALO          N/A     66  35  31 S18         N/A
WYNDMERE         N/A     70  41  35 SE17        N/A
 ***** THE ABOVE OBSERVATIONS ARE NON NWS ARE NOT QUALITY
       CONTROLLED AND MAY MIS-REPORT RAIN FOR SNOW...
$$

  *****  WEATHER ACROSS NORTHERN MINNESOTA  *****

CITY           SKY/WX    TMP DP  RH WIND       PRES   REMARKS
FLAG ISLAND    SUNNY     50  41  71 S17       30.03F
WARROAD        SUNNY     55  43  62 SE15G21   30.02F
ROSEAU         SUNNY     57  43  58 SE15G21   30.00F
HALLOCK        SUNNY     63  39  42 SE23G29   29.91F
THF RVR FALLS  SUNNY     61  39  44 SE20      29.97F
HALSTAD          N/A     65  37  36 SE25        N/A
FOSSTON        SUNNY     63  37  39 SE15G21   30.00F
BAUDETTE       SUNNY     54  38  54 SE14G21   30.07F
WASKISH        SUNNY     54  39  58 SE13G24   30.07F
CROOKSTON      SUNNY     63  41  45 SE25      29.95
$$
  *****  WEATHER ACROSS CENTRAL AND WEST MINNESOTA  *****

CITY           SKY/WX    TMP DP  RH WIND       PRES   REMARKS
BEMIDJI        SUNNY     54  40  58 SE16G26   30.06F
PARK RAPIDS    SUNNY     55  38  52 SE16      30.08F
WADENA         SUNNY     57  39  51 SE21G26   30.06F
DETROIT LAKES  SUNNY     59  41  51 SE21      30.00F
MOORHEAD       SUNNY     66  39  37 SE23G33   29.94F
FERGUS FALLS   SUNNY     63  37  39 SE23G29   30.00F
ELBOW LAKE     FAIR      62  41  47 SE21G28   30.00F
MORRIS MN      SUNNY     64  43  45 SE26      30.00F
STAPLES        SUNNY     55  39  54 SE13G21   30.09F
WHEATON        SUNNY     64  41  42 SE25G31   29.97F
$$
  *****  WEATHER ELSEWHERE ACROSS MINNESOTA  *****

CITY           SKY/WX    TMP DP  RH WIND       PRES   REMARKS
DULUTH         CLOUDY    44  34  67 E16       30.21F
INTRNTL FALLS  SUNNY     48  36  63 SE18G24   30.15F
ELY            CLOUDY    43  34  70 SE9       30.22F
CLOQUET        MOSUNNY   48  36  61 E9        30.19F
BRAINERD       SUNNY     53  39  59 SE8       30.13F
HIBBING        MOSUNNY   48  35  60 SE15      30.18F
ALEXANDRIA     SUNNY     58  41  53 SE18G28   30.07F
SAINT CLOUD    SUNNY     59  39  47 SE17      30.14F
MINNEAPOLIS    SUNNY     55  40  56 SE9       30.17F
$$

  *****  WEATHER ACROSS SOUTH DAKOTA  *****

CITY           SKY/WX    TMP DP  RH WIND       PRES   REMARKS
SIOUX FALLS    SUNNY     72  44  36 S14G23    30.00F
BROOKINGS      NOT AVBL
WATERTOWN      SUNNY     72  41  32 S21       29.95F
HURON          SUNNY     77  43  29 S15G23    29.90F
SISSETON         N/A     67  42  40 S20G28    29.94F
ABERDEEN       SUNNY     75  43  31 S21G28    29.87F
MITCHELL       SUNNY     79  44  28 S16       29.93F
PIERRE         SUNNY     84  39  20 S26G41    29.79F
MOBRIDGE       SUNNY     79  49  34 SE20      29.74F
RAPID CITY     SUNNY     79  45  29 S20       29.77F
$$

  *****  SOME WEATHER IN NEARBY STATES *****

CITY           SKY/WX    TMP DP  RH WIND       PRES   REMARKS
GLASGOW MT     SUNNY     69  44  40 E14       29.58F
GREAT FALLS MT CLOUDY    51  43  74 NW24G33   29.71R
CHEYENNE WY    PTSUNNY   70  35  27 MISG      30.00F
SCOTTSBLUFF NE SUNNY     73  45  36 SE12      29.90F
OMAHA NE       SUNNY     72  40  31 S10       30.07F
DES MOINES IA  SUNNY     65  44  46 E7        30.12F
DAVENPORT IA   SUNNY     57  38  48 NE10      30.18F
CHICAGO IL     CLOUDY    51  40  65 N21G26    30.18R
EAU CLAIRE WI  SUNNY     54  36  50 MISG      30.20F
LA CROSSE WI   SUNNY     57  38  48 VRB3      30.20F
$$

  *****  SOME NATIONAL WEATHER *****

CITY           SKY/WX    TMP DP  RH WIND       PRES   REMARKS
LA GUARDIA NY  PTSUNNY   64  52  64 SE13      29.83F
RALEIGH NC     MOSUNNY   72  49  44 W7        29.84F
ATLANTA GA     MOSUNNY   75  51  43 NW13      29.96F
NEW ORLEANS LA SUNNY     78  52  40 NE9       30.01F
OKLAHOMA CITY  MOSUNNY   82  57  42 S8        30.06F
ALBUQUERQUE NM PTSUNNY   65  46  50 CALM      30.15F
SALT LAKE CITY CLOUDY    61  36  39 NW23      30.01R
LOS ANGELES CA MOSUNNY   72  60  66 W10       29.91F
BOISE ID       MOSUNNY   54  46  74 N5        30.05R
SEATTLE WA     PTSUNNY   61  49  64 S14G22    29.93S
$$

*** WEATHER ACROSS MANITOBA...SASKATCHEWAN AND ONTARIO ***
                ***ONTARIO***

CITY           SKY/WX    TMP DP  RH WIND       PRES   REMARKS
GERALDTON      MOSUNNY   36  28  75 SW5       30.30S
THUNDER BAY    MOSUNNY   43  32  65 SE6       30.30
SIOUX LOOKOUT  CLOUDY    41  34  75 SE9       30.19F
TORONTO        CLOUDY    48  43  81 N16       29.95R
BIG TROUT LK   SUNNY     43  34  70 S15G22    30.06F
PICKLE LAKE    MOSUNNY   43  30  61 S13G20    30.17F
DRYDEN         CLOUDY    45  36  70 S14G20    30.15F
KENORA         MOSUNNY   52  36  54 SE18      30.06F
$$
                *** MANITOBA***

CITY           SKY/WX    TMP DP  RH WIND       PRES   REMARKS
BRANDON        SUNNY     64  43  45 S15G24    29.76F
DAUPHIN        SUNNY     70  41  35 S12       29.71F
ISLAND LAKE    SUNNY     54  39  58 S16G23    29.89F
PILOT MOUND      N/A     64  37  36 SE26G32     N/A
THE PAS        MOSUNNY   61  43  51 SE16      29.60F
THOMPSON       MOSUNNY   57  45  62 S12G17    29.66F
WINNIPEG       SUNNY     59  41  51 SE20G28   29.92F
LYNN LAKE      MOSUNNY   48  43  81 SE6       29.55F
CHURCHILL      CLOUDY    41  37  87 SW10      29.65F
GILLAM         MOSUNNY   54  39  58 SW18G26   29.71F
$$
                ***SASKATCHEWAN***

CITY           SKY/WX    TMP DP  RH WIND       PRES   REMARKS
ESTEVAN        MOSUNNY   68  43  40 E10       29.65F
KINDERSLEY     PTSUNNY   61  36  39 NW7       29.55
LLOYDMINSTER   PTSUNNY   57  41  54 NW15G21   29.58S
PRINCE ALBERT  PTSUNNY   64  43  45 SW7       29.54F
REGINA         MOSUNNY   66  46  48 SE14G20   29.61F



USA.gov is the U.S. government's official web portal to all federal, state and local government web resources and services.